Location: Clarkson Observatory
(44.6781°N, 74.9517°W)
Time: 00:36:48
(UTC-04:00)

OTV 5 (USA 277) - Visible Passes

Search period start: 27 April 2018 00:00
Search period end: 07 May 2018 00:00
Orbit: 308 x 325 km, 54.5° (Epoch: 25 April)

Date Brightness Start Highest point End Pass type
(mag) Time Alt. Az. Time Alt. Az. Time Alt. Az.
27 Apr ? 20:51:11 10° NNW 20:51:58 11° N 20:52:45 10° NNE visible
27 Apr ? 22:25:03 10° NNW 22:26:45 18° N 22:26:45 18° N visible
28 Apr ? 21:05:34 10° NNW 21:06:44 12° N 21:07:53 10° NNE visible
28 Apr ? 22:39:12 10° NW 22:40:30 21° NNW 22:40:30 21° NNW visible
29 Apr ? 21:19:41 10° NNW 21:21:26 15° NNE 21:23:11 10° ENE visible
29 Apr ? 22:53:26 10° NW 22:54:14 17° NW 22:54:14 17° NW visible
30 Apr ? 21:33:45 10° NNW 21:36:03 24° NNE 21:37:07 19° ENE visible
30 Apr ? 23:07:54 10° WNW 23:07:58 11° WNW 23:07:58 11° WNW visible
01 May ? 21:47:53 10° NW 21:50:31 46° NNE 21:50:52 43° ENE visible
02 May ? 22:02:11 10° WNW 22:04:37 60° WSW 22:04:37 60° WSW visible
03 May ? 20:42:20 10° NW 20:44:50 31° NNE 20:47:18 10° E visible
03 May ? 22:16:48 10° WNW 22:18:25 21° WSW 22:18:25 21° WSW visible
04 May ? 20:56:29 10° NW 20:59:12 73° NE 21:01:23 14° ESE visible
05 May ? 21:10:52 10° WNW 21:13:26 39° SW 21:15:14 16° SSE visible
06 May ? 21:25:47 10° W 21:27:29 15° SW 21:29:09 10° S visible
